Tracking 29892 objects as of 21-Nov-2024
HD Live streaming from Space Station
objects crossing your sky now

STARLINK-6158

Track STARLINK-6158 now!
10-day predictions
STARLINK-6158 is classified as:


NORAD ID: 56375
Int'l Code: 2023-061B
Perigee: 565.6 km
Apogee: 566.8 km
Inclination: 43.0 °
Period: 95.8 minutes
Semi major axis: 6937 km
RCS: Unknown
Launch date: May 4, 2023
Source: United States (US)
Launch site: AIR FORCE EASTERN TEST RANGE (AFETR)
Your satellite tracking list
Your tracking list is empty




NASA's NSSDC Master Catalog

Two Line Element Set (TLE):
1 56375U 23061B   24326.17202035  .00000030  00000-0  17311-4 0  9995
2 56375  43.0035 250.5751 0000891 276.1716  83.9025 15.02535530 85814
Source of the keplerian elements: AFSPC